Location: Emporia
(38.4040°N, 96.1810°W)
Time: 04:03:20
(UTC-06:00)

ISS - Visible Passes

Search period start: 31 January 2015 00:00
Search period end: 10 February 2015 00:00
Orbit: 400 x 408 km, 51.6° (Epoch: 30 January)

Date Brightness Start Highest point End Pass type
(mag) Time Alt. Az. Time Alt. Az. Time Alt. Az.
02 Feb -1.1 19:12:04 10° S 19:13:09 14° SSE 19:13:09 14° SSE visible
03 Feb -1.2 19:54:45 10° SW 19:56:11 24° SW 19:56:11 24° SW visible
04 Feb -2.8 19:02:34 10° SSW 19:05:38 42° SE 19:06:25 35° E visible
05 Feb -1.9 19:46:34 10° WSW 19:49:12 35° NW 19:49:12 35° NW visible
06 Feb -3.2 18:53:50 10° WSW 18:57:05 72° NW 18:59:11 20° NE visible
07 Feb -1.2 19:38:45 10° WNW 19:41:17 20° NNW 19:41:43 19° NNW visible
08 Feb -1.8 18:45:36 10° W 18:48:33 31° NNW 18:51:29 10° NNE visible
09 Feb -0.7 19:31:19 10° NW 19:32:56 13° NNW 19:33:49 12° N visible
